User: anonymous   Login
Location: Unspecified
(0.0000°N, 0.0000°E)
Time: 08:08:33
(UTC+00:00)
Language:

Transit 2A - Orbit

View from above orbital plane
View from above orbital plane
View from above satellite
View from above satellite

Ground track
Ground track

The orbit data is extracted from the following two-line orbital elements,

1    45U 60007A   19345.81307356 -.00000051  00000-0  14085-4 0  9996
2    45  66.6930 158.0166 0248131  93.0526 269.8995 14.33659433 95667
Epoch (UTC): 11 December 2019 19:30:49
Eccentricity: 0.0248131
inclination: 66.6930°
perigee height: 602 km
apogee height: 957 km
right ascension of ascending node: 158.0166°
argument of perigee: 93.0526°
revolutions per day: 14.33659433
mean anomaly at epoch: 269.8995°
orbit number at epoch: 9566

The dashed part of the orbit path shows where the satellite is in the earth's shadow,  

DLR